sat.trackr.live / text

‹ back to catalog

CENTAURI-6

NORAD 59451 · 2024-066K

PAYLOAD ACTIVE UNKNOWN

§ Identity

Operator
Country
AUS
Launch date
2024-04-07
Launch site
AFETR
Launch vehicle
Mass (kg)
RCS (m²)

External: N2YO · Heavens-Above · Gunter

§ Orbital elements

Epoch: 2026-05-25T01:04:50.357856Z

Period
95.64 min
Inclination
45.6076°
Eccentricity
0.0001595
Mean motion
15.05570038 rev/d
Perigee alt
548.7 km
Apogee alt
550.9 km
Semi-major
6,927.9 km
B*
3.5401e-4
RAAN
15.3576°
Arg perigee
297.4215°
Mean anomaly
62.6506°
Rev number
11,663

§ Raw data

CENTAURI-61 59451U 24066K   26145.04502729  .00004937  00000+0  35401-3 0  99972 59451  45.6076  15.3576 0001595 297.4215  62.6506 15.05570038116637

JSON: /api/v1/satellites/59451 · /tle

For live sub-satellite position, see the globe view (requires WebGL).

§ Visibility from observer

Set your observer location to see the next 7 days of passes ≥ 10°. The values pass through the URL so the page stays shareable.

No JS? Fill the form by hand. The geolocation button needs JavaScript.

§ Radio — SatNOGS DB

ModeDescriptionDownlinkUplink
FSK Mode U - Transmitter 400.180 MHz

1 transmitter · refreshed weekly from db.satnogs.org